Location: Mountain Grove
(34.0887°N, 86.6172°W)
Time: 00:48:07
(UTC+00:00)

Cosmos 2233 Rocket - Pass Details

Date: 14 July 2020
Orbit: 954 x 990 km, 82.9° (Epoch: 12 August)

Event Time Altitude Azimuth Distance (km) Brightness Sun altitude
Exits shadow 07:53:28 59° 154° (SSE) 1,106 4.0 -27.3°
Maximum altitude 07:54:35 74° 94° (E) 1,008 4.0 -27.2°
Drops below altitude 10° 08:00:48 10° 10° (N) 2,727 7.2 -26.5°
Sets 08:03:20 0° 9° (N) 3,683 8.0 -26.2°
